FW4751 Weather Reports


time (UTC)temp
F
wind
direction
speed
knots
gust
knots
rain 1hr
in
rain 24hr
in
rain mn
in
humidity
%
barometer
mb
20260903064003 61 0.0 0.9 0.00 0.00 0.00 82 1016.8
20260903063503 61 0.0 0.9 0.00 0.00 0.00 81 1016.8
20260903063005 61 0.0 0.9 0.00 0.00 0.00 82 1016.8
20260903062510 61 0.0 0.9 0.00 0.00 0.00 82 1016.9
20260903062005 61 0.0 0.9 0.00 0.00 0.00 82 1016.8
20260903061505 61 0.0 0.9 0.00 0.00 0.00 81 1016.8
20260903061010 61 0.0 0.9 0.00 0.00 0.00 81 1016.8
20260903060550 62 0.0 0.9 0.00 0.00 0.00 81 1016.8
20260903060005 62 0.0 0.9 0.00 0.00 0.00 80 1016.9
20260903055505 62 0.0 0.9 0.00 0.00 0.00 80 1016.9
20260903055005 62 0.0 0.9 0.00 0.00 0.00 79 1016.9
20260903054505 62 0.0 0.9 0.00 0.00 0.00 80 1017.0
20260903054025 62 0.0 0.9 0.00 0.00 0.00 79 1017.0
20260903053505 62 0.0 0.9 0.00 0.00 0.00 79 1017.0
20260903053010 62 0.0 0.9 0.00 0.00 0.00 79 1017.0
20260903052505 62 0.0 1.7 0.00 0.00 0.00 79 1017.0
20260903052010 62 23 0.9 1.7 0.00 0.00 0.00 78 1017.0
20260903051509 63 315 0.9 1.7 0.00 0.00 0.00 78 1017.0
20260903051025 63 0.0 0.9 0.00 0.00 0.00 77 1017.0
20260903050505 63 0.0 1.7 0.00 0.00 0.00 77 1017.2
20260903050009 63 0 0.9 1.7 0.00 0.00 0.00 77 1017.1
20260903045509 63 0 0.9 2.6 0.00 0.00 0.00 77 1017.1
20260903045009 63 23 0.9 3.5 0.00 0.00 0.00 77 1017.2
20260903044505 63 0 0.9 1.7 0.00 0.00 0.00 76 1017.2
20260903044004 63 0.0 0.9 0.00 0.00 0.00 76 1017.1
20260903043509 63 0.0 0.9 0.00 0.00 0.00 75 1017.1
20260903043009 63 0.0 0.9 0.00 0.00 0.00 74 1017.1
20260903042505 63 0.0 0.9 0.00 0.00 0.00 74 1017.1
20260903042005 64 0.0 0.9 0.00 0.00 0.00 73 1017.1
20260903041524 64 0.0 0.9 0.00 0.00 0.00 72 1016.9
20260903041004 64 0.0 0.9 0.00 0.00 0.00 71 1016.9
20260903040509 64 0.0 0.9 0.00 0.00 0.00 71 1016.8
20260903040009 64 0.0 0.9 0.00 0.00 0.00 70 1016.7
20260903035505 65 0.0 0.9 0.00 0.00 0.00 70 1016.7
20260903035005 65 0.0 0.9 0.00 0.00 0.00 70 1016.7
20260903034505 65 0.0 0.9 0.00 0.00 0.00 69 1016.7
20260903034008 65 0.0 0.9 0.00 0.00 0.00 69 1016.5
20260903033530 66 0.0 0.9 0.00 0.00 0.00 68 1016.5
20260903033005 66 0.0 1.7 0.00 0.00 0.00 68 1016.3
20260903032504 66 0.0 0.9 0.00 0.00 0.00 68 1016.4
20260903032005 66 0.0 0.9 0.00 0.00 0.00 67 1016.3
20260903031504 66 0.0 0.9 0.00 0.00 0.00 67 1016.5
20260903031009 67 0 0.9 2.6 0.00 0.00 0.00 66 1016.3
20260903030509 67 338 0.9 1.7 0.00 0.00 0.00 66 1016.3
20260903030005 67 338 0.9 3.5 0.00 0.00 0.00 65 1016.3
20260903025510 68 338 0.9 2.6 0.00 0.00 0.00 64 1016.1
20260903025045 68 0 0.9 1.7 0.00 0.00 0.00 63 1016.1
20260903024509 69 338 0.9 1.7 0.00 0.00 0.00 62 1016.3
20260903024009 69 315 0.9 1.7 0.00 0.00 0.00 61 1016.1
20260903023509 70 338 0.9 2.6 0.00 0.00 0.00 60 1016.2
20260903023004 70 338 0.9 2.6 0.00 0.00 0.00 60 1016.1
20260903022509 71 338 0.9 2.6 0.00 0.00 0.00 58 1016.0
20260903022009 72 315 0.9 3.5 0.00 0.00 0.00 56 1016.0
20260903021509 72 315 0.9 1.7 0.00 0.00 0.00 54 1016.0
20260903021009 73 315 0.9 2.6 0.00 0.00 0.00 54 1016.1
20260903020529 73 0.0 0.9 0.00 0.00 0.00 53 1016.0
20260903020009 74 315 0.9 3.5 0.00 0.00 0.00 51 1016.2
20260903015529 74 315 0.9 2.6 0.00 0.00 0.00 51 1016.1
20260903015004 74 338 0.9 3.5 0.00 0.00 0.00 48 1016.0
20260903014509 75 315 0.9 2.6 0.00 0.00 0.00 49 1016.1
20260903014009 75 315 0.9 3.5 0.00 0.00 0.00 51 1016.2
20260903013505 75 248 0.9 1.7 0.00 0.00 0.00 48 1016.2
20260903013009 75 315 0.9 3.5 0.00 0.00 0.00 48 1016.1
20260903012509 75 315 1.7 5.2 0.00 0.00 0.00 48 1016.0
20260903012004 75 315 1.7 4.3 0.00 0.00 0.00 48 1016.0
20260903011529 75 338 1.7 4.3 0.00 0.00 0.00 51 1015.9
20260903011004 75 315 0.9 3.5 0.00 0.00 0.00 53 1016.0
20260903010544 75 315 1.7 3.5 0.00 0.00 0.00 53 1015.9
20260903010004 75 315 0.9 3.5 0.00 0.00 0.00 54 1016.1
20260903005504 75 338 1.7 4.3 0.00 0.00 0.00 54 1015.9
20260903005004 75 338 1.7 5.2 0.00 0.00 0.00 54 1016.0
20260903004504 75 338 1.7 4.3 0.00 0.00 0.00 54 1016.1
20260903004004 75 338 2.6 6.1 0.00 0.00 0.00 54 1015.9
20260903003504 76 0 1.7 4.3 0.00 0.00 0.00 53 1016.0
20260903003004 76 338 1.7 5.2 0.00 0.00 0.00 53 1016.1
20260903002524 77 0 0.9 4.3 0.00 0.00 0.00 53 1016.0
20260903002004 77 315 1.7 5.2 0.00 0.00 0.00 53 1016.1
20260903001544 77 315 1.7 5.2 0.00 0.00 0.00 52 1016.2
20260903001004 78 315 1.7 5.2 0.00 0.00 0.00 52 1016.2
20260903000524 78 293 1.7 4.3 0.00 0.00 0.00 49 1016.1
20260903000004 78 315 1.7 6.1 0.00 0.00 0.00 50 1016.2
20260902235504 78 315 0.9 3.5 0.00 0.00 0.00 51 1016.1
20260902235004 78 315 1.7 5.2 0.00 0.00 0.00 51 1016.2
20260902234504 78 315 1.7 4.3 0.00 0.00 0.00 52 1016.2
20260902234009 78 338 1.7 5.2 0.00 0.00 0.00 52 1016.3
20260902233504 79 0 1.7 5.2 0.00 0.00 0.00 52 1016.1
20260902233024 79 315 1.7 5.2 0.00 0.00 0.00 51 1016.1
20260902232524 79 315 1.7 4.3 0.00 0.00 0.00 53 1016.1
20260902232024 79 315 1.7 5.2 0.00 0.00 0.00 53 1016.0
20260902231509 79 315 1.7 4.3 0.00 0.00 0.00 53 1016.2
20260902231004 78 315 2.6 7.0 0.00 0.00 0.00 53 1016.1
20260902230504 79 315 2.6 6.1 0.00 0.00 0.00 52 1016.1
20260902230024 79 315 2.6 6.1 0.00 0.00 0.00 52 1016.1
20260902225504 80 315 2.6 7.0 0.00 0.00 0.00 52 1016.2
20260902225009 80 315 1.7 6.1 0.00 0.00 0.00 51 1016.2
20260902224504 80 225 2.6 7.8 0.00 0.00 0.00 52 1016.2
20260902224004 80 315 1.7 6.1 0.00 0.00 0.00 52 1016.3
20260902223529 80 315 1.7 7.0 0.00 0.00 0.00 52 1016.3
20260902223009 79 315 0.9 4.3 0.00 0.00 0.00 53 1016.5
20260902222504 79 315 2.6 5.2 0.00 0.00 0.00 53 1016.4
20260902222024 79 315 2.6 5.2 0.00 0.00 0.00 53 1016.6
20260902221504 80 315 1.7 4.3 0.00 0.00 0.00 53 1016.6
20260902221024 80 315 1.7 5.2 0.00 0.00 0.00 53 1016.6
20260902220529 80 248 1.7 7.0 0.00 0.00 0.00 53 1016.7
20260902220024 80 225 1.7 5.2 0.00 0.00 0.00 53 1016.7
20260902215504 80 315 1.7 6.1 0.00 0.00 0.00 54 1016.8
20260902215008 80 315 1.7 7.0 0.00 0.00 0.00 54 1016.8
20260902214508 80 315 1.7 5.2 0.00 0.00 0.00 54 1017.0
20260902214004 80 315 1.7 7.0 0.00 0.00 0.00 54 1017.0
20260902213508 79 248 1.7 3.5 0.00 0.00 0.00 55 1016.9
20260902213004 79 315 1.7 7.8 0.00 0.00 0.00 56 1016.9
20260902212504 79 315 1.7 6.1 0.00 0.00 0.00 56 1017.0
20260902212003 78 315 1.7 7.0 0.00 0.00 0.00 56 1017.0
20260902211504 78 225 1.7 5.2 0.00 0.00 0.00 57 1017.0
20260902211009 78 225 2.6 7.8 0.00 0.00 0.00 56 1017.1
20260902210504 78 225 2.6 7.8 0.00 0.00 0.00 56 1017.0
20260902210004 79 225 2.6 7.8 0.00 0.00 0.00 55 1017.0
20260902205509 79 248 1.7 7.0 0.00 0.00 0.00 56 1017.2
20260902205004 79 225 2.6 7.0 0.00 0.00 0.00 56 1017.1
20260902204509 79 225 2.6 7.0 0.00 0.00 0.00 55 1017.2
20260902204004 78 225 1.7 7.0 0.00 0.00 0.00 56 1017.1
20260902203505 78 225 1.7 5.2 0.00 0.00 0.00 56 1017.2
20260902203009 78 225 1.7 3.5 0.00 0.00 0.00 56 1017.3
20260902202504 78 225 2.6 6.1 0.00 0.00 0.00 57 1017.3
20260902202003 77 315 0.9 3.5 0.00 0.00 0.00 56 1017.3
20260902201508 78 315 1.7 4.3 0.00 0.00 0.00 55 1017.3
20260902201003 78 225 1.7 5.2 0.00 0.00 0.00 53 1017.2
20260902200503 79 225 0.9 3.5 0.00 0.00 0.00 54 1017.2
20260902200008 79 225 1.7 4.3 0.00 0.00 0.00 53 1017.5
20260902195508 79 315 1.7 3.5 0.00 0.00 0.00 53 1017.6
20260902195008 79 315 1.7 5.2 0.00 0.00 0.00 52 1017.8
20260902194503 80 270 1.7 7.0 0.00 0.00 0.00 51 1017.8
20260902194024 80 225 1.7 7.0 0.00 0.00 0.00 51 1017.8
20260902193508 80 225 1.7 5.2 0.00 0.00 0.00 50 1017.6
20260902193008 79 270 0.9 4.3 0.00 0.00 0.00 51 1017.7
20260902192529 78 248 1.7 5.2 0.00 0.00 0.00 52 1017.8
20260902192006 78 225 1.7 3.5 0.00 0.00 0.00 54 1017.7
20260902191509 77 248 1.7 4.3 0.00 0.00 0.00 54 1017.7
20260902191029 77 225 2.6 6.1 0.00 0.00 0.00 55 1017.7
20260902190508 77 225 1.7 5.2 0.00 0.00 0.00 53 1017.6
20260902190009 78 270 0.9 3.5 0.00 0.00 0.00 54 1017.8
20260902185528 78 225 1.7 3.5 0.00 0.00 0.00 54 1017.6
20260902185008 78 225 0.9 4.3 0.00 0.00 0.00 53 1017.7
20260902184508 79 225 1.7 4.3 0.00 0.00 0.00 52 1017.7
20260902184008 78 225 1.7 4.3 0.00 0.00 0.00 54 1017.7
20260902183543 78 270 1.7 5.2 0.00 0.00 0.00 55 1017.7
20260902183006 77 225 1.7 4.3 0.00 0.00 0.00 54 1017.8
20260902182503 77 225 1.7 5.2 0.00 0.00 0.00 55 1017.7
20260902182004 77 225 1.7 4.3 0.00 0.00 0.00 55 1017.7
20260902181508 77 225 0.9 3.5 0.00 0.00 0.00 55 1017.9
20260902181008 77 225 0.9 3.5 0.00 0.00 0.00 55 1017.7
20260902180508 77 270 0.9 3.5 0.00 0.00 0.00 55 1017.7
20260902180005 77 225 1.7 4.3 0.00 0.00 0.00 56 1017.7
20260902175508 76 315 0.9 2.6 0.00 0.00 0.00 57 1017.6
20260902175003 76 315 0.9 1.7 0.00 0.00 0.00 56 1017.7
20260902174508 77 338 0.9 3.5 0.00 0.00 0.00 55 1017.6
20260902174008 77 158 0.9 3.5 0.00 0.00 0.00 54 1017.7
20260902173528 77 203 0.9 2.6 0.00 0.00 0.00 55 1017.6
20260902173028 77 180 1.7 6.1 0.00 0.00 0.00 54 1017.6
20260902172508 77 0 1.7 6.1 0.00 0.00 0.00 55 1017.5
20260902172008 77 203 0.9 4.3 0.00 0.00 0.00 55 1017.6
20260902171503 77 113 1.7 4.3 0.00 0.00 0.00 55 1017.5
20260902171008 76 135 0.9 2.6 0.00 0.00 0.00 55 1017.6
20260902170508 76 158 1.7 4.3 0.00 0.00 0.00 56 1017.5
20260902170008 75 180 0.9 2.6 0.00 0.00 0.00 58 1017.6
20260902165508 74 135 0.9 2.6 0.00 0.00 0.00 59 1017.6
20260902165008 74 158 0.9 2.6 0.00 0.00 0.00 59 1017.6
20260902164503 73 135 0.9 2.6 0.00 0.00 0.00 61 1017.6
20260902164003 72 270 0.9 2.6 0.00 0.00 0.00 61 1017.6
20260902163508 72 135 0.9 1.7 0.00 0.00 0.00 63 1017.5
20260902163008 70 135 0.9 2.6 0.00 0.00 0.00 64 1017.3
20260902162508 69 135 0.9 3.5 0.00 0.00 0.00 65 1017.4
20260902162008 69 135 0.9 2.6 0.00 0.00 0.00 66 1017.5
20260902161508 68 113 0.9 3.5 0.00 0.00 0.00 68 1017.5
20260902161003 67 180 0.9 2.6 0.00 0.00 0.00 69 1017.5
20260902160510 66 180 0.9 1.7 0.00 0.00 0.00 71 1017.6
20260902160007 65 180 0.9 2.6 0.00 0.00 0.00 72 1017.6
20260902155505 64 135 0.9 1.7 0.00 0.00 0.00 73 1017.8
20260902155030 64 180 0.9 1.7 0.00 0.00 0.00 75 1017.8
20260902154510 63 180 0.9 1.7 0.00 0.00 0.00 75 1017.7
20260902154008 62 203 0.9 1.7 0.00 0.00 0.00 75 1017.7
20260902153525 62 203 0.9 2.6 0.00 0.00 0.00 76 1017.6
20260902153005 61 203 0.9 1.7 0.00 0.00 0.00 77 1017.6
20260902152510 61 158 0.9 1.7 0.00 0.00 0.00 78 1017.6
20260902152010 60 270 0.9 1.7 0.00 0.00 0.00 78 1017.6
20260902151510 60 135 0.9 1.7 0.00 0.00 0.00 78 1017.5
20260902151025 60 0.0 1.7 0.00 0.00 0.00 78 1017.4
20260902150530 60 0.0 0.9 0.00 0.00 0.00 78 1017.4
20260902150010 59 0.0 0.9 0.00 0.00 0.00 78 1017.3
20260902145510 59 0.0 1.7 0.00 0.00 0.00 78 1017.2
20260902145009 59 0.0 0.9 0.00 0.00 0.00 78 1017.1
20260902144505 59 0.0 0.9 0.00 0.00 0.00 78 1017.1
20260902144005 59 0.0 0.9 0.00 0.00 0.00 78 1017.2
20260902143510 59 0.0 0.9 0.00 0.00 0.00 78 1017.5
20260902143005 59 0.0 0.9 0.00 0.00 0.00 78 1017.3
20260902142510 59 0.0 0.9 0.00 0.00 0.00 78 1017.3
20260902142010 59 0.0 1.7 0.00 0.00 0.00 78 1017.2
20260902141510 59 0.0 1.7 0.00 0.00 0.00 78 1017.2
20260902141010 59 0.0 1.7 0.00 0.00 0.00 78 1017.1
20260902140509 59 0.0 0.9 0.00 0.00 0.00 78 1017.1
20260902140029 59 0.0 0.9 0.00 0.00 0.00 78 1017.0
20260902135504 59 0.0 0.9 0.00 0.00 0.00 78 1017.0
20260902135030 59 0.0 0.9 0.00 0.00 0.00 78 1016.9
20260902134504 59 0.0 0.9 0.00 0.00 0.00 78 1016.9
20260902133504 59 0.0 0.9 0.00 0.00 0.00 78 1016.8
20260902133006 59 0.0 1.7 0.00 0.00 0.00 78 1016.6
20260902132510 59 0.0 0.9 0.00 0.00 0.00 78 1016.8
20260902132004 59 0.0 1.7 0.00 0.00 0.00 78 1016.8
20260902131510 59 0.0 0.9 0.00 0.00 0.00 78 1016.9
20260902131004 59 0.0 0.9 0.00 0.00 0.00 78 1016.9
20260902130505 59 0.0 0.9 0.00 0.00 0.00 78 1016.9
20260902130029 59 0.0 0.9 0.00 0.00 0.00 78 1016.7
20260902125505 58 158 0.9 1.7 0.00 0.00 0.00 79 1016.8
20260902125009 58 180 0.9 1.7 0.00 0.00 0.00 79 1016.8
20260902124605 58 0.0 1.7 0.00 0.00 0.00 79 1016.8
20260902124004 58 0.0 1.7 0.00 0.00 0.00 79 1016.9
20260902123509 58 0.0 1.7 0.00 0.00 0.00 80 1016.9
20260902123005 58 203 0.9 1.7 0.00 0.00 0.00 80 1017.0
20260902122509 58 135 0.9 1.7 0.00 0.00 0.00 80 1016.8
20260902122005 58 0.0 1.7 0.00 0.00 0.00 80 1016.9
20260902121509 58 0.0 0.9 0.00 0.00 0.00 80 1016.7
20260902121029 57 0.0 0.9 0.00 0.00 0.00 80 1016.7
20260902120510 57 0.0 0.9 0.00 0.00 0.00 80 1016.7
20260902120044 57 0.0 1.7 0.00 0.00 0.00 80 1016.7
20260902115509 57 0.0 1.7 0.00 0.00 0.00 81 1016.6
20260902115009 57 0.0 1.7 0.00 0.00 0.00 81 1016.7
20260902114504 57 0.0 0.9 0.00 0.00 0.00 81 1016.6
20260902114004 57 0.0 0.9 0.00 0.00 0.00 82 1016.7
20260902113504 57 158 0.9 2.6 0.00 0.00 0.00 82 1016.6
20260902113004 57 135 0.9 1.7 0.00 0.00 0.00 82 1016.8
20260902112509 57 0.0 1.7 0.00 0.00 0.00 83 1016.9
20260902112030 56 158 0.9 1.7 0.00 0.00 0.00 83 1016.9
20260902111510 56 135 0.9 2.6 0.00 0.00 0.00 83 1017.0
20260902111029 56 180 0.9 1.7 0.00 0.00 0.00 83 1017.1
20260902110509 56 135 0.9 1.7 0.00 0.00 0.00 83 1017.0
20260902110007 56 135 0.9 1.7 0.00 0.00 0.00 83 1017.1
20260902105504 56 0.0 0.9 0.00 0.00 0.00 83 1017.2
20260902105004 56 0.0 0.9 0.00 0.00 0.00 83 1017.2
20260902104504 56 0.0 0.9 0.00 0.00 0.00 83 1017.2
20260902104010 56 0.0 0.9 0.00 0.00 0.00 83 1017.2
20260902103509 56 0.0 0.9 0.00 0.00 0.00 83 1017.2
20260902103010 56 0.0 0.9 0.00 0.00 0.00 83 1017.0
20260902102524 56 0.0 0.9 0.00 0.00 0.00 83 1017.1
20260902102009 56 0.0 0.9 0.00 0.00 0.00 83 1017.0
20260902101504 56 0.0 0.9 0.00 0.00 0.00 83 1016.9
20260902101005 56 0.0 0.9 0.00 0.00 0.00 83 1016.9
20260902100504 56 0.0 0.0 0.00 0.00 0.00 83 1016.9
20260902100024 56 0.0 0.9 0.00 0.00 0.00 83 1017.0
20260902095504 56 0.0 0.9 0.00 0.00 0.00 83 1017.0
20260902095004 56 0.0 0.9 0.00 0.00 0.00 83 1017.0
20260902094504 56 0.0 0.9 0.00 0.00 0.00 83 1017.1
20260902094025 56 0.0 0.0 0.00 0.00 0.00 83 1017.1
20260902093529 56 0.0 0.9 0.00 0.00 0.00 83 1017.0
20260902093024 56 0.0 0.9 0.00 0.00 0.00 83 1017.0
20260902092504 56 0.0 0.9 0.00 0.00 0.00 83 1016.9
20260902092024 57 0.0 0.0 0.00 0.00 0.00 83 1017.0
20260902091509 57 0.0 0.9 0.00 0.00 0.00 83 1017.0
20260902091009 57 0.0 0.9 0.00 0.00 0.00 83 1017.0
20260902090509 57 0.0 0.9 0.00 0.00 0.00 83 1017.0
20260902090005 57 0.0 0.9 0.00 0.00 0.00 83 1017.0
20260902085504 57 0.0 0.9 0.00 0.00 0.00 83 1016.9
20260902085004 57 0.0 0.9 0.00 0.00 0.00 82 1017.0
20260902084504 57 0.0 0.9 0.00 0.00 0.00 82 1017.1
20260902084004 57 0.0 0.9 0.00 0.00 0.00 82 1017.2
20260902083504 57 0.0 0.9 0.00 0.00 0.00 82 1017.1
20260902083024 57 0.0 0.9 0.00 0.00 0.00 82 1017.3
20260902082525 57 0.0 0.9 0.00 0.00 0.00 82 1017.1
20260902082024 57 0.0 0.9 0.00 0.00 0.00 82 1017.0
20260902081504 57 0.0 0.9 0.00 0.00 0.00 82 1017.0
20260902081004 57 0.0 0.9 0.00 0.00 0.00 82 1016.9
20260902080524 57 0.0 0.9 0.00 0.00 0.00 81 1017.1
20260902080004 57 0.0 0.0 0.00 0.00 0.00 81 1017.0
20260902075504 57 0.0 0.9 0.00 0.00 0.00 81 1017.1
20260902075024 58 0.0 0.9 0.00 0.00 0.00 81 1017.1
20260902074504 58 0.0 0.9 0.00 0.00 0.00 81 1017.1
20260902074044 58 0.0 0.9 0.00 0.00 0.00 80 1017.0
20260902073504 58 0.0 0.9 0.00 0.00 0.00 80 1017.0
20260902073009 58 0.0 0.9 0.00 0.00 0.00 80 1017.0
20260902072504 58 0.0 0.9 0.00 0.00 0.00 80 1017.1
20260902072024 58 0.0 0.9 0.00 0.00 0.00 80 1017.1
20260902071504 58 0.0 0.9 0.00 0.00 0.00 80 1017.1
20260902071024 58 0.0 0.0 0.00 0.00 0.00 80 1017.2
20260902070505 59 0.0 0.9 0.00 0.00 0.00 79 1017.1
20260902070006 59 0.0 0.9 0.00 0.00 0.00 79 1017.0
20260902065544 59 0.0 0.9 0.00 0.00 0.00 79 1017.2
20260902065004 59 0.0 0.9 0.00 0.00 0.00 79 1017.2
20260902064503 59 0.0 0.9 0.00 0.00 0.00 79 1017.1